STARLINK-31880, 59661

Orbit data source: Space-Track

STARLINK-31880, 59661 is a payload satellite owned by SpaceX/Seattle (US) in LEO that was launched on Mon, 06 May 2024 UTC via an FALCON 9 launch vehicle from the Air Force Eastern Test Range (AFETR). Payload-class satellites include a variety of spacecraft equipped with specific instruments for various scientific and technological missions. These include communications satellites like Starlink; space stations such as the ISS; scientific satellites like the Hubble; Earth observation satellites from companies like Planet Labs, Umbra, and HawkEye 360; GPS; miniature CubeSats for education and research; and military/defense satellites.

Loading next visibility...
Identifier
59661, 2024-084H
Orbit
LEO
Country
Flag of USUS
Related business
Manufacturer
SpaceX/Seattle
Mission
Operational Commercial Communications
Bus & Motor
STARLINK V2M, Unknown motor
Mass
730 kg wet, ~700 kg dry
Launch date (UTC)
2024-05-06 (2 years ago)
Launch vehicle
FALCON 9
Launch site
Air Force Eastern Test Range (AFETR)
Object type
Payload
Rocket body
Debris
Shape & HBR
Box + 2 Pan, 17.7 m
Radar Cross Section
33.884 m², Large (>1 m²)

Expand to show TLE details & history
Last TLE update: 1 day ago

TLE from 1 day ago
0 STARLINK-31880
1 59661U 24084H   25347.82941725  .00001628  00000-0  68671-4 0  9993
2 59661  43.0011 163.0854 0001519 261.1778  98.8902 15.27577247 91286
Epoch: 2025-12-13T19:54Z
TLE epoch observation values (Epoch: 2025-12-13T19:54:21.650Z)
Latitude
0.00001°
Longitude
141.74413°
Altitude
482.994 km
Speed
7.626 km/s
True Right ascension
10h 52m 20s
True Declination
0° 00' 00"
Sunlit
Object was in daylight at epoch
Visualization orbit readout
Latitude
Unknown
Longitude
Unknown
Altitude
Unknown
Speed
Unknown
Apparent Right ascension
Unknown
Apparent Declination
Unknown
Sunlit
N/A
Visualization observer readout
Local Sidereal Time
21:46:25
Azimuth
Unknown
Elevation
Unknown
Doppler factor
Unknown
Orbital elements
Apogee altitude
486.045 km
Perigee altitude
483.96 km
Semi-major axis
6,863.139 km
Eccentricity
0.00015
Inclination
43.0011°
RAAN
163.0854°
Arg. of periapsis
261.1778°
True anomaly
98.9074°
Mean anomaly
98.8902°
Eccentric anomaly
98.8988°
Mean motion
3.81732 °/min
Orbital period
94.31 mins
BSTAR
0.000068671
Loading maneuver chart data...
Computing Atmospheric mass density...
Loading historical data...
Loading historical data...
Loading historical data...
Loading historical data...
Loading historical data...
Loading historical data...
Loading historical data...

Documentation

Showing up to 5 results
|